When you browse on this site, cookies collect data to enhance your experience and personalize the content and advertising you see.
Visit our Privacy Policy to learn more. By continuing to use the site, you agree to this use of cookies and data.
  • en France
  • Liste des pays
  • À 7 jours
  • Température de l'eau
  • Carte météo
  • Widgets météo
  • user-avatar
    Se connecter

    Météo par heure à El Quouseir

    Ce jour, 21 Août, Mercredi

    Heure Température Précipitation Vent Pression Humidité
    00:00 +32°C° 0 mm 5 m/s 755 mmHg 23%
    01:00 +30°C° 0 mm 5 m/s 755 mmHg 23%
    02:00 +29°C° 0 mm 5 m/s 755 mmHg 23%
    03:00 +29°C° 0 mm 6 m/s 755 mmHg 25%
    04:00 +28°C° 0 mm 7 m/s 755 mmHg 26%
    05:00 +27°C° 0 mm 8 m/s 755 mmHg 28%
    06:00 +31°C° 0 mm 8 m/s 755 mmHg 26%
    07:00 +34°C° 0 mm 8 m/s 755 mmHg 24%
    08:00 +38°C° 0 mm 9 m/s 756 mmHg 22%
    09:00 +39°C° 0 mm 8 m/s 756 mmHg 22%
    10:00 +40°C° 0 mm 8 m/s 755 mmHg 23%
    11:00 +41°C° 0 mm 8 m/s 755 mmHg 23%
    12:00 +41°C° 0 mm 7 m/s 755 mmHg 24%
    13:00 +41°C° 0 mm 7 m/s 754 mmHg 25%
    14:00 +41°C° 0 mm 6 m/s 753 mmHg 26%
    15:00 +41°C° 0 mm 6 m/s 753 mmHg 27%
    16:00 +40°C° 0 mm 6 m/s 753 mmHg 27%
    17:00 +40°C° 0 mm 6 m/s 752 mmHg 28%
    18:00 +38°C° 0 mm 6 m/s 753 mmHg 31%
    19:00 +35°C° 0 mm 6 m/s 753 mmHg 34%
    20:00 +33°C° 0 mm 6 m/s 753 mmHg 36%
    21:00 +33°C° 0 mm 6 m/s 753 mmHg 35%
    22:00 +32°C° 0 mm 6 m/s 753 mmHg 34%
    23:00 +32°C° 0 mm 7 m/s 753 mmHg 34%

    Demain, 22 Août, Jeudi

    Heure Température Précipitation Vent Pression Humidité
    00:00 +32°C° 0 mm 7 m/s 753 mmHg 33%
    01:00 +32°C° 0 mm 7 m/s 753 mmHg 33%
    02:00 +32°C° 0 mm 7 m/s 753 mmHg 32%
    03:00 +31°C° 0 mm 8 m/s 753 mmHg 36%
    04:00 +29°C° 0 mm 8 m/s 753 mmHg 41%
    05:00 +28°C° 0 mm 9 m/s 753 mmHg 45%
    06:00 +32°C° 0 mm 9 m/s 753 mmHg 37%
    07:00 +34°C° 0 mm 10 m/s 753 mmHg 30%
    08:00 +38°C° 0 mm 10 m/s 753 mmHg 23%
    09:00 +40°C° 0 mm 9 m/s 753 mmHg 21%
    10:00 +42°C° 0 mm 9 m/s 753 mmHg 20%
    11:00 +44°C° 0 mm 9 m/s 753 mmHg 18%
    12:00 +43°C° 0 mm 8 m/s 752 mmHg 20%
    13:00 +43°C° 0 mm 8 m/s 752 mmHg 23%
    14:00 +43°C° 0 mm 7 m/s 752 mmHg 25%
    15:00 +43°C° 0 mm 7 m/s 751 mmHg 26%
    16:00 +41°C° 0 mm 6 m/s 751 mmHg 27%
    17:00 +40°C° 0 mm 6 m/s 750 mmHg 29%
    18:00 +38°C° 0 mm 6 m/s 751 mmHg 32%
    19:00 +35°C° 0 mm 6 m/s 751 mmHg 35%
    20:00 +33°C° 0 mm 6 m/s 752 mmHg 38%
    21:00 +33°C° 0 mm 7 m/s 752 mmHg 37%
    22:00 +33°C° 0 mm 7 m/s 752 mmHg 35%
    23:00 +33°C° 0 mm 7 m/s 752 mmHg 34%

    Après-demain, 23 Août, Vendredi

    Heure Température Précipitation Vent Pression Humidité
    00:00 +33°C° 0 mm 8 m/s 752 mmHg 35%
    01:00 +32°C° 0 mm 9 m/s 752 mmHg 37%
    02:00 +31°C° 0 mm 10 m/s 751 mmHg 39%
    03:00 +31°C° 0 mm 10 m/s 752 mmHg 41%
    04:00 +29°C° 0 mm 9 m/s 752 mmHg 42%
    05:00 +28°C° 0 mm 9 m/s 752 mmHg 44%
    06:00 +31°C° 0 mm 9 m/s 752 mmHg 40%
    07:00 +33°C° 0 mm 9 m/s 752 mmHg 36%
    08:00 +35°C° 0 mm 9 m/s 752 mmHg 32%
    09:00 +38°C° 0 mm 8 m/s 752 mmHg 31%
    10:00 +40°C° 0 mm 8 m/s 752 mmHg 29%
    11:00 +41°C° 0 mm 8 m/s 752 mmHg 28%
    12:00 +41°C° 0 mm 7 m/s 752 mmHg 30%
    13:00 +41°C° 0 mm 6 m/s 752 mmHg 32%
    14:00 +41°C° 0 mm 5 m/s 751 mmHg 35%
    15:00 +40°C° 0 mm 4 m/s 751 mmHg 35%
    16:00 +39°C° 0 mm 3 m/s 751 mmHg 36%
    17:00 +38°C° 0 mm 2 m/s 751 mmHg 37%
    18:00 +36°C° 0 mm 2 m/s 751 mmHg 43%
    19:00 +34°C° 0 mm 2 m/s 752 mmHg 48%
    20:00 +31°C° 0 mm 3 m/s 752 mmHg 53%
    21:00 +31°C° 0 mm 3 m/s 752 mmHg 53%
    22:00 +31°C° 0 mm 3 m/s 752 mmHg 52%
    23:00 +31°C° 0 mm 3 m/s 752 mmHg 51%

    24 Août, Samedi

    Heure Température Précipitation Vent Pression Humidité
    00:00 +32°C° 0 mm 4 m/s 752 mmHg 51%
    01:00 +30°C° 0 mm 5 m/s 752 mmHg 51%
    02:00 +30°C° 0 mm 7 m/s 752 mmHg 51%
    03:00 +29°C° 0 mm 7 m/s 752 mmHg 53%
    04:00 +29°C° 0 mm 7 m/s 752 mmHg 56%
    05:00 +28°C° 0 mm 8 m/s 752 mmHg 58%
    06:00 +32°C° 0 mm 7 m/s 753 mmHg 51%
    07:00 +34°C° 0 mm 7 m/s 753 mmHg 43%
    08:00 +36°C° 0 mm 7 m/s 753 mmHg 36%
    09:00 +38°C° 0 mm 7 m/s 754 mmHg 34%
    10:00 +40°C° 0 mm 6 m/s 754 mmHg 32%
    11:00 +41°C° 0 mm 6 m/s 754 mmHg 31%
    12:00 +41°C° 0 mm 5 m/s 753 mmHg 33%
    13:00 +41°C° 0 mm 4 m/s 753 mmHg 35%
    14:00 +39°C° 0 mm 3 m/s 752 mmHg 37%
    15:00 +39°C° 0 mm 2 m/s 752 mmHg 36%
    16:00 +39°C° 0 mm 2 m/s 752 mmHg 35%
    17:00 +39°C° 0 mm 1 m/s 752 mmHg 34%
    18:00 +36°C° 0 mm 1 m/s 752 mmHg 37%
    19:00 +36°C° 0 mm 2 m/s 753 mmHg 41%
    20:00 +34°C° 0 mm 2 m/s 753 mmHg 44%
    21:00 +34°C° 0 mm 2 m/s 753 mmHg 44%
    22:00 +33°C° 0 mm 3 m/s 753 mmHg 43%
    23:00 +33°C° 0 mm 3 m/s 753 mmHg 42%

    25 Août, Dimanche

    Heure Température Précipitation Vent Pression Humidité
    00:00 +33°C° 0 mm 3 m/s 753 mmHg 45%
    01:00 +31°C° 0 mm 3 m/s 753 mmHg 47%
    02:00 +32°C° 0 mm 4 m/s 753 mmHg 50%
    03:00 +30°C° 0 mm 5 m/s 753 mmHg 53%
    04:00 +29°C° 0 mm 6 m/s 753 mmHg 56%
    05:00 +29°C° 0 mm 7 m/s 753 mmHg 59%
    06:00 +32°C° 0 mm 7 m/s 754 mmHg 50%
    07:00 +35°C° 0 mm 7 m/s 754 mmHg 42%
    08:00 +38°C° 0 mm 7 m/s 754 mmHg 33%
    09:00 +40°C° 0 mm 7 m/s 754 mmHg 31%
    10:00 +41°C° 0 mm 6 m/s 754 mmHg 29%
    11:00 +44°C° 0 mm 6 m/s 754 mmHg 27%
    12:00 +43°C° 0 mm 5 m/s 754 mmHg 27%
    13:00 +43°C° 0 mm 4 m/s 753 mmHg 28%
    14:00 +43°C° 0 mm 3 m/s 753 mmHg 28%
    15:00 +42°C° 0 mm 3 m/s 752 mmHg 28%
    16:00 +41°C° 0 mm 2 m/s 752 mmHg 28%
    17:00 +41°C° 0 mm 1 m/s 752 mmHg 27%
    18:00 +39°C° 0 mm 1 m/s 752 mmHg 30%
    19:00 +36°C° 0 mm 1 m/s 753 mmHg 33%
    20:00 +34°C° 0 mm 1 m/s 753 mmHg 36%
    21:00 +35°C° 0 mm 2 m/s 753 mmHg 35%
    22:00 +34°C° 0 mm 3 m/s 753 mmHg 35%
    23:00 +34°C° 0 mm 3 m/s 753 mmHg 35%

    26 Août, Lundi

    Heure Température Précipitation Vent Pression Humidité
    00:00 +34°C° 0 mm 5 m/s 753 mmHg 36%
    01:00 +33°C° 0 mm 6 m/s 753 mmHg 38%
    02:00 +33°C° 0 mm 8 m/s 753 mmHg 39%
    03:00 +32°C° 0 mm 8 m/s 753 mmHg 40%
    04:00 +32°C° 0 mm 9 m/s 753 mmHg 41%
    05:00 +31°C° 0 mm 9 m/s 753 mmHg 42%
    06:00 +34°C° 0 mm 9 m/s 753 mmHg 36%
    07:00 +38°C° 0 mm 9 m/s 754 mmHg 31%
    08:00 +40°C° 0 mm 9 m/s 754 mmHg 25%
    09:00 +43°C° 0 mm 9 m/s 754 mmHg 24%
    10:00 +44°C° 0 mm 8 m/s 754 mmHg 22%
    11:00 +45°C° 0 mm 8 m/s 754 mmHg 21%
    12:00 +45°C° 0 mm 7 m/s 753 mmHg 22%
    13:00 +45°C° 0 mm 6 m/s 753 mmHg 23%
    14:00 +45°C° 0 mm 6 m/s 752 mmHg 24%
    15:00 +45°C° 0 mm 5 m/s 752 mmHg 24%
    16:00 +43°C° 0 mm 4 m/s 752 mmHg 24%
    17:00 +42°C° 0 mm 4 m/s 752 mmHg 25%
    18:00 +41°C° 0 mm 4 m/s 752 mmHg 28%
    19:00 +38°C° 0 mm 4 m/s 753 mmHg 31%
    20:00 +36°C° 0 mm 4 m/s 753 mmHg 34%
    21:00 +36°C° 0 mm 5 m/s 753 mmHg 31%
    22:00 +36°C° 0 mm 7 m/s 753 mmHg 28%
    23:00 +37°C° 0 mm 8 m/s 753 mmHg 25%
    Voir plus